TimeEDT,TemperatureF,Dew PointF,Humidity,Sea Level PressureIn,VisibilityMPH,Wind Direction,Wind SpeedMPH,Gust SpeedMPH,PrecipitationIn,Events,Conditions,WindDirDegrees,DateUTC
12:53 AM,68.0,64.0,87,30.05,10.0,Calm,Calm,-,N/A,,Mostly Cloudy,0,2013-07-27 04:53:00
1:53 AM,69.1,64.0,84,30.04,10.0,Calm,Calm,-,N/A,,Overcast,0,2013-07-27 05:53:00
2:53 AM,66.9,64.9,93,30.03,10.0,Calm,Calm,-,N/A,,Mostly Cloudy,0,2013-07-27 06:53:00
3:53 AM,66.0,64.0,93,30.02,10.0,Calm,Calm,-,N/A,,Overcast,0,2013-07-27 07:53:00
4:53 AM,66.0,64.0,93,30.01,8.0,Calm,Calm,-,N/A,,Scattered Clouds,0,2013-07-27 08:53:00
5:53 AM,66.0,64.0,93,30.00,10.0,Calm,Calm,-,N/A,,Clear,0,2013-07-27 09:53:00
6:53 AM,64.9,64.0,97,30.01,8.0,Calm,Calm,-,N/A,,Clear,0,2013-07-27 10:53:00
7:53 AM,70.0,64.9,84,30.02,10.0,South,3.5,-,N/A,,Clear,170,2013-07-27 11:53:00
8:53 AM,71.1,64.9,81,30.03,10.0,South,6.9,-,N/A,,Overcast,180,2013-07-27 12:53:00
9:53 AM,72.0,66.0,81,30.02,10.0,Variable,4.6,-,N/A,,Mostly Cloudy,0,2013-07-27 13:53:00
10:53 AM,75.9,66.9,74,30.01,10.0,SSE,5.8,-,N/A,,Scattered Clouds,160,2013-07-27 14:53:00
11:53 AM,75.9,68.0,76,30.01,10.0,South,8.1,-,N/A,,Mostly Cloudy,180,2013-07-27 15:53:00
12:17 PM,75.2,68.0,78,30.03,10.0,SSW,3.5,-,N/A,,Overcast,210,2013-07-27 16:17:00
12:50 PM,75.2,68.0,78,30.02,10.0,SW,5.8,-,0.00,Rain,Light Rain,220,2013-07-27 16:50:00
12:53 PM,75.9,68.0,76,30.01,10.0,SSW,5.8,-,0.00,Rain,Light Rain,210,2013-07-27 16:53:00
1:53 PM,77.0,69.1,76,29.98,10.0,SSW,6.9,-,0.00,,Mostly Cloudy,210,2013-07-27 17:53:00
2:18 PM,75.2,68.0,78,30.00,10.0,Variable,6.9,-,N/A,,Mostly Cloudy,0,2013-07-27 18:18:00
2:53 PM,75.0,69.1,82,29.96,7.0,Variable,5.8,-,0.00,Rain,Light Rain,0,2013-07-27 18:53:00
3:53 PM,77.0,68.0,74,29.96,10.0,SW,8.1,-,0.00,,Partly Cloudy,220,2013-07-27 19:53:00
4:53 PM,75.9,66.9,74,29.95,10.0,SSW,9.2,-,0.00,Rain,Light Rain,200,2013-07-27 20:53:00
5:53 PM,75.9,66.9,74,29.94,10.0,SSW,5.8,-,0.00,Rain,Light Rain,210,2013-07-27 21:53:00
6:53 PM,75.0,66.9,76,29.94,10.0,South,4.6,-,0.00,Rain,Light Rain,190,2013-07-27 22:53:00
7:53 PM,73.0,66.9,81,29.94,10.0,Calm,Calm,-,0.01,,Mostly Cloudy,0,2013-07-27 23:53:00
8:53 PM,71.1,66.9,87,29.94,10.0,SSW,3.5,-,N/A,,Overcast,210,2013-07-28 00:53:00
9:53 PM,72.0,66.9,84,29.95,10.0,Calm,Calm,-,N/A,,Mostly Cloudy,0,2013-07-28 01:53:00
10:23 PM,71.6,66.2,83,29.97,10.0,Calm,Calm,-,N/A,,Overcast,0,2013-07-28 02:23:00
10:53 PM,72.0,66.0,81,29.94,10.0,SSW,3.5,-,N/A,,Overcast,210,2013-07-28 02:53:00
11:53 PM,71.1,66.9,87,29.94,10.0,Calm,Calm,-,N/A,,Overcast,0,2013-07-28 03:53:00